Time,TemperatureF,DewpointF,PressureIn,WindDirection,WindDirectionDegrees,WindSpeedMPH,WindSpeedGustMPH,Humidity,HourlyPrecipIn,Conditions,Clouds,dailyrainin,SolarRadiationWatts/m^2,SoftwareType,DateUTC
2013-10-22 00:05:00,55.0,43.0,-100.00,NNW,340,6.0,10.0,63,0.00,,,0.00,0.000000,,2013-10-22 04:05:00,
2013-10-22 00:43:00,53.0,43.0,-100.00,NNW,347,6.0,9.0,68,0.00,,,0.00,0.000000,,2013-10-22 04:43:00,
2013-10-22 00:55:00,53.0,43.0,-100.00,NNW,347,6.0,9.0,68,0.00,,,0.00,0.000000,,2013-10-22 04:55:00,
2013-10-22 01:04:00,53.0,43.0,-100.00,NNW,347,6.0,9.0,68,0.00,,,0.00,0.000000,,2013-10-22 05:04:00,
2013-10-22 01:43:00,51.0,43.0,-100.00,North,351,5.0,8.0,74,0.00,,,0.00,0.000000,,2013-10-22 05:43:00,
2013-10-22 01:53:00,51.0,43.0,-100.00,North,351,5.0,8.0,74,0.00,,,0.00,0.000000,,2013-10-22 05:53:00,
2013-10-22 02:02:00,51.0,43.0,-100.00,North,351,5.0,8.0,74,0.00,,,0.00,0.000000,,2013-10-22 06:02:00,
2013-10-22 02:43:00,50.0,44.0,-100.00,NNW,343,5.0,8.0,80,0.00,,,0.00,0.000000,,2013-10-22 06:43:00,
2013-10-22 02:54:00,50.0,44.0,-100.00,NNW,343,5.0,8.0,80,0.00,,,0.00,0.000000,,2013-10-22 06:54:00,
2013-10-22 03:02:00,50.0,44.0,-100.00,NNW,343,5.0,8.0,80,0.00,,,0.00,0.000000,,2013-10-22 07:02:00,
2013-10-22 03:42:00,51.0,45.0,-100.00,NNW,347,4.0,8.0,81,0.00,,,0.00,0.000000,,2013-10-22 07:42:00,
2013-10-22 03:52:00,51.0,45.0,-100.00,NNW,347,4.0,8.0,81,0.00,,,0.00,0.000000,,2013-10-22 07:52:00,
2013-10-22 04:02:00,51.0,45.0,-100.00,NNW,347,4.0,8.0,81,0.00,,,0.00,0.000000,,2013-10-22 08:02:00,
2013-10-22 04:42:00,50.0,45.0,-100.00,NNW,344,5.0,9.0,83,0.00,,,0.00,0.000000,,2013-10-22 08:42:00,
2013-10-22 04:52:00,50.0,45.0,-100.00,NNW,344,5.0,9.0,83,0.00,,,0.00,0.000000,,2013-10-22 08:52:00,
2013-10-22 05:02:00,50.0,45.0,-100.00,NNW,344,5.0,9.0,83,0.00,,,0.00,0.000000,,2013-10-22 09:02:00,
2013-10-22 05:43:00,47.0,45.0,-100.00,NNW,343,8.0,19.0,93,0.04,,,0.04,0.000000,,2013-10-22 09:43:00,
2013-10-22 05:54:00,47.0,45.0,-100.00,NNW,343,8.0,19.0,93,0.04,,,0.04,0.000000,,2013-10-22 09:54:00,
2013-10-22 06:03:00,47.0,45.0,-100.00,NNW,343,8.0,19.0,93,0.04,,,0.04,0.000000,,2013-10-22 10:03:00,
2013-10-22 06:43:00,46.0,45.0,-100.00,NNW,342,7.0,14.0,97,0.06,,,0.10,0.000000,,2013-10-22 10:43:00,
2013-10-22 06:54:00,46.0,45.0,-100.00,NNW,342,7.0,14.0,97,0.06,,,0.10,0.000000,,2013-10-22 10:54:00,
2013-10-22 07:03:00,46.0,45.0,-100.00,NNW,342,7.0,14.0,97,0.06,,,0.10,0.000000,,2013-10-22 11:03:00,
2013-10-22 07:42:00,42.0,41.0,-100.00,NNW,340,7.0,17.0,96,0.04,,,0.14,0.000000,,2013-10-22 11:42:00,
2013-10-22 07:53:00,42.0,41.0,-100.00,NNW,340,7.0,17.0,96,0.04,,,0.14,0.000000,,2013-10-22 11:53:00,
2013-10-22 08:01:00,42.0,41.0,-100.00,NNW,340,7.0,17.0,96,0.04,,,0.14,0.000000,,2013-10-22 12:01:00,
2013-10-22 08:42:00,41.0,40.0,-100.00,NNW,341,5.0,11.0,97,0.00,,,0.14,1.000000,,2013-10-22 12:42:00,
2013-10-22 08:52:00,41.0,40.0,-100.00,NNW,341,5.0,11.0,97,0.00,,,0.14,1.000000,,2013-10-22 12:52:00,
2013-10-22 09:01:00,41.0,40.0,-100.00,NNW,341,5.0,11.0,97,0.00,,,0.14,1.000000,,2013-10-22 13:01:00,
2013-10-22 09:42:00,39.0,38.0,-100.00,NNW,332,2.0,12.0,96,0.01,,,0.15,13.000000,,2013-10-22 13:42:00,
2013-10-22 09:53:00,39.0,38.0,-100.00,NNW,332,2.0,12.0,96,0.01,,,0.15,13.000000,,2013-10-22 13:53:00,
2013-10-22 10:02:00,39.0,38.0,-100.00,NNW,332,2.0,12.0,96,0.01,,,0.15,13.000000,,2013-10-22 14:02:00,
2013-10-22 10:42:00,41.0,39.0,-100.00,WNW,292,2.0,6.0,94,0.00,,,0.15,76.000000,,2013-10-22 14:42:00,
2013-10-22 10:52:00,41.0,39.0,-100.00,WNW,292,2.0,6.0,94,0.00,,,0.15,76.000000,,2013-10-22 14:52:00,
2013-10-22 11:01:00,41.0,39.0,-100.00,WNW,292,2.0,6.0,94,0.00,,,0.15,76.000000,,2013-10-22 15:01:00,
2013-10-22 11:43:00,47.0,40.0,-100.00,NNW,335,4.0,9.0,77,0.00,,,0.15,445.000000,,2013-10-22 15:43:00,
2013-10-22 11:54:00,47.0,40.0,-100.00,NNW,335,4.0,9.0,77,0.00,,,0.15,445.000000,,2013-10-22 15:54:00,
2013-10-22 12:04:00,47.0,40.0,-100.00,NNW,335,4.0,9.0,77,0.00,,,0.15,445.000000,,2013-10-22 16:04:00,
2013-10-22 12:43:00,51.0,39.0,-100.00,NNW,336,4.0,9.0,63,0.00,,,0.15,743.000000,,2013-10-22 16:43:00,
2013-10-22 12:53:00,51.0,39.0,-100.00,NNW,336,4.0,9.0,63,0.00,,,0.15,743.000000,,2013-10-22 16:53:00,
2013-10-22 13:03:00,51.0,39.0,-100.00,NNW,336,4.0,9.0,63,0.00,,,0.15,743.000000,,2013-10-22 17:03:00,
2013-10-22 13:43:00,53.0,38.0,-100.00,SW,220,3.0,7.0,56,0.00,,,0.15,865.000000,,2013-10-22 17:43:00,
2013-10-22 13:53:00,53.0,38.0,-100.00,SW,220,3.0,7.0,56,0.00,,,0.15,865.000000,,2013-10-22 17:53:00,
2013-10-22 14:02:00,53.0,38.0,-100.00,SW,220,3.0,7.0,56,0.00,,,0.15,865.000000,,2013-10-22 18:02:00,
2013-10-22 14:42:00,56.0,37.0,-100.00,NNW,343,3.0,7.0,49,0.00,,,0.15,893.000000,,2013-10-22 18:42:00,
2013-10-22 14:52:00,56.0,37.0,-100.00,NNW,343,3.0,7.0,49,0.00,,,0.15,893.000000,,2013-10-22 18:52:00,
2013-10-22 15:02:00,56.0,37.0,-100.00,NNW,343,3.0,7.0,49,0.00,,,0.15,893.000000,,2013-10-22 19:02:00,
2013-10-22 15:43:00,58.0,36.0,-100.00,NNW,333,2.0,6.0,43,0.00,,,0.15,835.000000,,2013-10-22 19:43:00,
2013-10-22 16:43:00,58.0,35.0,-100.00,NNW,337,3.0,5.0,42,0.00,,,0.15,703.000000,,2013-10-22 20:43:00,
2013-10-22 16:52:00,58.0,35.0,-100.00,NNW,337,3.0,5.0,42,0.00,,,0.15,703.000000,,2013-10-22 20:52:00,
2013-10-22 17:02:00,58.0,35.0,-100.00,NNW,337,3.0,5.0,42,0.00,,,0.15,703.000000,,2013-10-22 21:02:00,
2013-10-22 17:44:00,56.0,33.0,-100.00,NW,321,2.0,7.0,42,0.00,,,0.15,480.000000,,2013-10-22 21:44:00,
2013-10-22 17:54:00,56.0,33.0,-100.00,NW,321,2.0,7.0,42,0.00,,,0.15,480.000000,,2013-10-22 21:54:00,
2013-10-22 18:05:00,56.0,33.0,-100.00,NW,321,2.0,7.0,42,0.00,,,0.15,480.000000,,2013-10-22 22:05:00,
2013-10-22 18:44:00,51.0,34.0,-100.00,NNW,348,2.0,4.0,52,0.00,,,0.15,82.000000,,2013-10-22 22:44:00,
2013-10-22 18:54:00,51.0,34.0,-100.00,NNW,348,2.0,4.0,52,0.00,,,0.15,82.000000,,2013-10-22 22:54:00,
2013-10-22 19:03:00,51.0,34.0,-100.00,NNW,348,2.0,4.0,52,0.00,,,0.15,82.000000,,2013-10-22 23:03:00,
2013-10-22 19:43:00,47.0,36.0,-100.00,NNW,344,2.0,4.0,66,0.00,,,0.15,9.000000,,2013-10-22 23:43:00,
2013-10-22 19:53:00,47.0,36.0,-100.00,NNW,344,2.0,4.0,66,0.00,,,0.15,9.000000,,2013-10-22 23:53:00,
2013-10-22 20:02:00,47.0,36.0,-100.00,NNW,344,2.0,4.0,66,0.00,,,0.15,9.000000,,2013-10-23 00:02:00,
2013-10-22 20:42:00,45.0,37.0,-100.00,North,349,4.0,7.0,73,0.00,,,0.15,0.000000,,2013-10-23 00:42:00,
2013-10-22 20:52:00,45.0,37.0,-100.00,North,349,4.0,7.0,73,0.00,,,0.15,0.000000,,2013-10-23 00:52:00,
2013-10-22 21:02:00,45.0,37.0,-100.00,North,349,4.0,7.0,73,0.00,,,0.15,0.000000,,2013-10-23 01:02:00,
2013-10-22 21:42:00,45.0,38.0,-100.00,NNW,347,4.0,7.0,75,0.00,,,0.15,0.000000,,2013-10-23 01:42:00,
2013-10-22 21:52:00,45.0,38.0,-100.00,NNW,347,4.0,7.0,75,0.00,,,0.15,0.000000,,2013-10-23 01:52:00,
2013-10-22 22:02:00,45.0,38.0,-100.00,NNW,347,4.0,7.0,75,0.00,,,0.15,0.000000,,2013-10-23 02:02:00,
2013-10-22 22:42:00,45.0,40.0,-100.00,NNW,341,2.0,6.0,81,0.00,,,0.15,0.000000,,2013-10-23 02:42:00,
2013-10-22 22:54:00,45.0,40.0,-100.00,NNW,341,2.0,6.0,81,0.00,,,0.15,0.000000,,2013-10-23 02:54:00,
2013-10-22 23:02:00,45.0,40.0,-100.00,NNW,341,2.0,6.0,81,0.00,,,0.15,0.000000,,2013-10-23 03:02:00,
2013-10-22 23:44:00,44.0,41.0,-100.00,NNW,343,3.0,5.0,90,0.00,,,0.15,0.000000,,2013-10-23 03:44:00,
2013-10-22 23:55:00,44.0,41.0,-100.00,NNW,343,3.0,5.0,90,0.00,,,0.15,0.000000,,2013-10-23 03:55:00,